Location: Big Sable Point
(44.0575°N, 86.5149°W)
Time: 06:21:18
(UTC-04:00)

Envisat - Visible Passes

Search period start: 26 September 2018 00:00
Search period end: 06 October 2018 00:00
Orbit: 764 x 766 km, 98.2° (Epoch: 24 September)

Date Brightness Start Highest point End Pass type
(mag) Time Alt. Az. Time Alt. Az. Time Alt. Az.
26 Sep 3.0 20:46:50 10° SSE 20:51:55 84° WSW 20:57:02 10° NNW visible
27 Sep 3.3 20:10:27 10° SE 20:15:16 46° ENE 20:20:07 10° N visible
27 Sep 5.3 21:50:32 10° SW 21:54:30 23° W 21:58:29 10° NW visible
28 Sep 3.9 21:12:37 10° S 21:17:31 48° W 21:22:27 10° NNW visible
29 Sep 2.9 20:35:41 10° SSE 20:40:44 79° ENE 20:45:51 10° N visible
29 Sep 5.9 22:18:02 10° WSW 22:20:22 13° W 22:22:41 10° WNW visible
30 Sep 3.6 19:59:31 10° SE 20:04:09 37° ENE 20:08:48 10° N visible
30 Sep 4.9 21:38:54 10° SSW 21:43:14 28° W 21:47:36 10° NW visible
01 Oct 3.5 21:01:18 10° S 21:06:19 61° W 21:11:22 10° NNW visible
02 Oct 3.0 20:24:35 10° SSE 20:29:35 63° ENE 20:34:37 10° N visible
02 Oct 5.7 22:05:51 10° SW 22:09:02 17° W 22:12:15 10° NW visible
03 Oct 3.8 19:48:41 10° SE 19:53:03 30° ENE 19:57:27 10° N visible
03 Oct 4.5 21:27:21 10° SSW 21:31:59 35° W 21:36:38 10° NNW visible
04 Oct 3.1 20:50:03 10° S 20:55:07 77° WSW 21:00:13 10° NNW visible
05 Oct 3.2 20:13:34 10° SE 20:18:27 50° ENE 20:23:22 10° N visible
05 Oct 5.4 21:53:58 10° SW 21:57:45 21° W 22:01:33 10° NW visible
